Regional Weather Roundup
Issued by NWS

Home | Current Version | Previous Version | Graphics & Text | Print | Product List | Glossary On
Versions: 1 2 3 4 5 6 7 8 9 10 11 12 13 14 15 16 17 18 19 20 21 22 23 24 25 26 27 28 29 30 31 32 33 34 35 36 37 38 39 40 41 42 43 44 45 46 47 48 49 50
000
ASUS43 KLOT 271710
RWRIL

ILLINOIS REGIONAL WEATHER ROUNDUP
NATIONAL WEATHER SERVICE CHICAGO/ROMEOVILLE IL
1100 AM CST TUE JAN 27 2015

NOTE: "FAIR" INDICATES FEW OR NO CLOUDS BELOW 12,000 FEET WITH NO
SIGNIFICANT WEATHER AND/OR OBSTRUCTIONS TO VISIBILITY.

* THESE STATIONS ARE NOT UNDER NWS QUALITY CONTROL. THEY ALSO MAY NOT
  REPORT WEATHER SUCH AS PRECIPITATION OR FOG.

ILZ001-002-007-009-015-016-024-271800-
NORTHWEST ILLINOIS

CITY           SKY/WX    TMP DP  RH WIND       PRES   REMARKS
MOLINE         CLOUDY    29  22  75 N10       30.19R WCI  20
STERLING*      CLOUDY    28  23  80 NE6       30.19R WCI  22
SAVANNA*       CLOUDY    28  22  79 N3        30.20R
$$

ILZ003-004-008-010-011-017-018-271800-
NORTH CENTRAL ILLINOIS

CITY           SKY/WX    TMP DP  RH WIND       PRES   REMARKS
ROCKFORD       CLOUDY    29  24  82 E7        30.19R HAZE    WCI  22
FREEPORT*      CLOUDY    27  24  88 NE6       30.19R FOG     WCI  21
ROCHELLE*      CLOUDY    28  26  91 NE6       30.18R FOG     WCI  21
DE KALB*       CLOUDY    28  24  88 NE8       30.16S FOG     WCI  19
PERU*          CLOUDY    30  27  86 E3        30.18S
$$

ILZ005-006-012>014-019>023-271800-
NORTHEAST ILLINOIS

CITY           SKY/WX    TMP DP  RH WIND       PRES   REMARKS
CHICAGO-OHARE  CLOUDY    29  20  69 N8        30.16R WCI  21
CHICAGO-MIDWAY CLOUDY    31  19  61 NE9       30.16R WCI  23
AURORA         CLOUDY    31  24  75 E8        30.16R HAZE    WCI  23
LANSING*       CLOUDY    28  18  65 E8        30.16R WCI  20
JOLIET*        CLOUDY    29  24  81 E6        30.16S WCI  23
WAUKEGAN       CLOUDY    28  18  66 NE10      30.17R WCI  19
DUPAGE AIRPORT CLOUDY    29  21  72 NE9       30.15R WCI  20
KANKAKEE*      CLOUDY    28  24  84 NE6       30.17R WCI  22
WHEELING       CLOUDY    29  19  66 NE9       30.18R WCI  20
MORRIS*        CLOUDY    29  28  96 CALM      30.16R FOG
ROMEOVILLE*    CLOUDY    29  24  81 NE6       30.16S WCI  23
NORTHERLY ISL    N/A     29  19  66 NE9         N/A  WCI  21
$$

LMZ740>746-271800-
SOUTHERN LAKE MICHIGAN

STATION/POSITION SKY/WX   TEMP    WIND        PRES    VSBY  WAVE
                          AIR SEA DIR/SP/G                  HT/PER
                          (F)     (DEG/KT/KT) (MB)    (MI)  (FT/S)
WAUKEGAN HARBOR            28      50/ 12/ 14   N/A
HARRISON CRIB              28      60/  9/ 10   N/A
BURNHAM HARBOR             29      50/  8/ 12   N/A
CALUMET HARBOR             28      50/  7/ 10   N/A
MICHIGAN CITY              26      10/  6/  7   N/A
$$

ILZ025>027-034>036-040-047-049-050-058-095>099-271800-
WEST-CENTRAL ILLINOIS

CITY           SKY/WX    TMP DP  RH WIND       PRES   REMARKS
QUINCY         SUNNY     41  31  67 NE12      30.17R
GALESBURG*     CLOUDY    29  26  87 NE9       30.18S WCI  21
MACOMB*        CLOUDY    31  29  90 NE10      30.21R FOG     WCI  22
JACKSONVILLE*  PTSUNNY   40  33  76 N9        30.17R
PITTSFIELD*    MOSUNNY   41  32  71 N9        30.17R
$$

ILZ028>032-037-038-041>044-048-051>054-059>061-271800-
CENTRAL ILLINOIS

CITY           SKY/WX    TMP DP  RH WIND       PRES   REMARKS
PONTIAC        CLOUDY    31  29  92 NE6       30.17R FOG     WCI  25
BLOOMINGTON    CLOUDY    30  28  92 NE9       30.16R FOG     WCI  22
DECATUR        CLOUDY    33  30  88 NE10      30.15R WCI  25
PEORIA         CLOUDY    31  25  78 NE9       30.18R WCI  23
LACON*         CLOUDY    30  25  83 N5        30.18R WCI  25
LINCOLN*       CLOUDY    33  30  89 N8        30.18R FOG     WCI  25
SPRINGFIELD    CLOUDY    33  28  81 N9        30.17R WCI  25
TAYLORVILLE    CLOUDY    32  30  93 N10       30.16R FOG     WCI  24
$$

ILZ033-039-045-046-055>057-062-063-271800-
EAST-CENTRAL ILLINOIS

CITY           SKY/WX    TMP DP  RH WIND       PRES   REMARKS
CHAMPAIGN      CLOUDY    30  26  85 NE9       30.14R WCI  22
DANVILLE*      CLOUDY    28  26  91 NE6       30.11R FOG     WCI  22
RANTOUL*       CLOUDY    31  28  88 NE8       30.14R FOG     WCI  24
MATTOON        CLOUDY    31  28  89 N10       30.12R WCI  22
PARIS*         CLOUDY    31  29  94 NE3       30.14R
$$

ILZ079-100>102-271800-
SOUTHWEST ILLINOIS

CITY           SKY/WX    TMP DP  RH WIND       PRES   REMARKS
ALTON          PTSUNNY   39  32  75 NW12      30.16R WCI  32
BELLEVILLE     SUNNY     43  33  66 N14       30.16R
CAHOKIA*       PTSUNNY   42  33  70 N15       30.17R
SPARTA*        PTSUNNY   39  32  75 N7        30.17R WCI  34
$$

ILZ064>066-069>071-074>076-080>082-084>086-088>090-092>094-271800-
SOUTH-CENTRAL ILLINOIS

CITY           SKY/WX    TMP DP  RH WIND       PRES   REMARKS
CARBONDALE     MOSUNNY   42  31  64 N12G18    30.15R
CAIRO*         CLOUDY    44  35  70 N10       30.16R
EFFINGHAM*     CLOUDY    34  29  84 N9        30.16R HAZE    WCI  26
MARION         PTSUNNY   41  32  70 N12       30.15R
MT. VERNON     CLOUDY    39  28  65 N9        30.14R WCI  33
CENTRALIA*     SUNNY     38  31  76 N7        30.14R WCI  32
SALEM*         CLOUDY    39  32  76 NW8       30.14R WCI  33
METROPOLIS*    PTSUNNY   41  32  71 N12       30.14R
$$

ILZ067-068-072-073-078-083-087-091-271800-
SOUTHEAST ILLINOIS

CITY           SKY/WX    TMP DP  RH WIND       PRES   REMARKS
LAWRENCEVILLE  CLOUDY    33  30  88 NE9       30.13R WCI  25
FLORA*         CLOUDY    35  31  87 N9        30.14R FOG     WCI  27
FAIRFIELD*     CLOUDY    37  32  83 N6        30.13R WCI  32
HARRISBURG*    PTSUNNY   40  32  74 N10G16    30.16R
ROBINSON*      CLOUDY    31  31  97 N6        30.14R FOG     WCI  26
CARMI*         CLOUDY    37  36  93 NW9       30.13R FOG     WCI  31
$$

ABBREVIATIONS USED IN REMARKS
   TC - TEMPERATURE IN CELSIUS
  WCI - WIND CHILL INDEX
   HX - HEAT INDEX
  VSB - VISIBILITY
$$



USA.gov is the U.S. government's official web portal to all federal, state and local government web resources and services.